Carbondale, IL

1:41 AM CDT on October 23, 2017 (GMT -0500)
Southern Illinois

Weather History for KMDH - October, 2012

Change the Weather History Date:

Tuesday, October 2, 2012

  Actual Average Record
Temperature  
Mean Temperature 56 °F -  
Max Temperature 62 °F 77 °F 95 °F (1953)
Min Temperature 52 °F 48 °F 30 °F (1939)
Degree Days  
Heating Degree Days 8    
Growing Degree Days 6 (Base 50)    
Moisture  
Dew Point 51 °F    
Average Humidity 80    
Maximum Humidity 94    
Minimum Humidity 63    
Precipitation  
Precipitation 0.01 in - - ()
Sea Level Pressure  
Sea Level Pressure 29.83 in    
Wind  
Wind Speed 8 mph (NW)    
Max Wind Speed 15 mph    
Max Gust Speed 24 mph    
Visibility 10 miles    
Events Rain    
Averages and records for this station are not official NWS values.
T = Trace of Precipitation, MM = Missing Value Source: NWS Daily Summary

Daily Weather History Graph

Daily Weather History Graph

Search for Another Location

Airport or City:

Trip Planner

Search our weather history database for the weather conditions in past years. The results will help you decide how hot, cold, wet, or windy it might be!

Date:

Astronomy

Oct. 02, 2012 Rise Set
Actual Time 6:53 AM CDT 6:37 PM CDT
Civil Twilight 6:27 AM CDT 7:03 PM CDT
Nautical Twilight 5:57 AM CDT 7:34 PM CDT
Astronomical Twilight 5:26 AM CDT 8:04 PM CDT
Moon 7:54 PM CDT (10/2) 9:17 AM CDT (10/2)
Length of Visible Light 12h 36m
Length of Day
11h 43m
Waning Gibbous, 94% of the Moon is Illuminated
Oct 2
Waning Gibbous
Oct 8
Last Quarter
Oct 15
New
Oct 21
First Quarter
Oct 29
Full

Hourly Weather History & Observations

Time (CDT) Temp. Dew Point Humidity Pressure Visibility Wind Dir Wind Speed Gust Speed Precip Events Conditions
12:52 AM 55.9 °F 51.1 °F 84% 29.74 in 10.0 mi NNW 11.5 mph - N/A   Overcast
2:52 AM 55.0 °F 51.1 °F 86% 29.73 in 10.0 mi NNW 8.1 mph - N/A   Overcast
3:52 AM 55.0 °F 50.0 °F 83% 29.74 in 10.0 mi NW 6.9 mph - N/A   Overcast
4:52 AM 53.1 °F 48.0 °F 83% 29.75 in 10.0 mi NW 6.9 mph - N/A   Mostly Cloudy
5:52 AM 52.0 °F 48.0 °F 86% 29.76 in 10.0 mi NW 5.8 mph - N/A   Mostly Cloudy
6:52 AM 53.1 °F 48.0 °F 83% 29.78 in 10.0 mi NW 8.1 mph - N/A   Overcast
8:52 AM 54.0 °F 48.0 °F 80% 29.80 in 10.0 mi NW 10.4 mph - N/A   Overcast
9:52 AM 57.9 °F 50.0 °F 75% 29.81 in 10.0 mi NNW 8.1 mph - N/A   Overcast
10:52 AM 60.1 °F 50.0 °F 69% 29.81 in 10.0 mi NNW 11.5 mph - N/A   Overcast
11:52 AM 61.0 °F 48.9 °F 64% 29.81 in 10.0 mi NNW 10.4 mph - N/A   Overcast
12:52 PM 61.0 °F 48.9 °F 64% 29.82 in 10.0 mi NNW 15.0 mph 24.2 mph N/A   Overcast
2:01 PM 60.8 °F 50.0 °F 68% 29.82 in 10.0 mi NNW 6.9 mph - N/A   Overcast
2:33 PM 60.8 °F 50.0 °F 68% 29.83 in 10.0 mi NW 9.2 mph - N/A   Overcast
2:49 PM 60.8 °F 48.2 °F 63% 29.83 in 10.0 mi NNW 9.2 mph - N/A   Overcast
2:52 PM 61.0 °F 50.0 °F 67% 29.83 in 10.0 mi NNW 6.9 mph - N/A   Overcast
3:38 PM 59.0 °F 51.8 °F 77% 29.84 in 9.0 mi North 8.1 mph - 0.00 in   Overcast
3:52 PM 57.9 °F 53.1 °F 84% 29.84 in 8.0 mi NNW 5.8 mph - 0.00 in   Overcast
4:52 PM 57.9 °F 54.0 °F 87% 29.86 in 9.0 mi Calm Calm - 0.00 in   Overcast
5:21 PM 57.2 °F 55.4 °F 94% 29.86 in 7.0 mi ESE 4.6 mph - 0.01 in   Overcast
5:52 PM 57.0 °F 55.0 °F 93% 29.87 in 6.0 mi Calm Calm - 0.01 in   Overcast
6:52 PM 57.0 °F 54.0 °F 89% 29.88 in 10.0 mi North 5.8 mph - N/A   Overcast
7:52 PM 57.0 °F 53.1 °F 87% 29.89 in 10.0 mi Calm Calm - N/A   Overcast
9:52 PM 57.0 °F 54.0 °F 89% 29.91 in 10.0 mi Calm Calm - 0.00 in   Overcast
10:52 PM 57.0 °F 54.0 °F 89% 29.92 in 9.0 mi SSW 4.6 mph - 0.00 in Rain Light Rain
11:52 PM 57.0 °F 53.1 °F 87% 29.91 in 10.0 mi WSW 3.5 mph - 0.00 in   Overcast